XBASP MMVR-MMMT

Flight info

Callsign XBASP
Flight time 1h 5m
Altitude 7000
Route VFR
Aircraft C172/L-SDE3/2104

Departure

Time 2026-05-05 00:33
Airport General Heriberto Jara International Airport (MMVR)

Arrival

Time 2026-05-05 01:38
Airport Minatitlán/Coatzacoalcos International Airport (MMMT)
Time Latitude Longitude Altitude Speed Heading
2026-05-05 00:24 19.14125 -96.18498 83 ft 0 kts 326°
2026-05-05 00:27 19.14141 -96.18506 83 ft 9 kts 351°
2026-05-05 00:27 19.14209 -96.18532 80 ft 13 kts 276°
2026-05-05 00:27 19.14192 -96.18636 82 ft 17 kts 229°
2026-05-05 00:28 19.14092 -96.18730 81 ft 22 kts 219°
2026-05-05 00:28 19.13969 -96.18845 82 ft 25 kts 217°
2026-05-05 00:28 19.13803 -96.18900 84 ft 26 kts 185°
2026-05-05 00:28 19.13752 -96.18908 84 ft 0 kts 191°
2026-05-05 00:29 19.13750 -96.18909 84 ft 3 kts 191°
2026-05-05 00:29 19.13676 -96.18924 86 ft 18 kts 191°
2026-05-05 00:29 19.13508 -96.18959 88 ft 30 kts 191°
2026-05-05 00:29 19.13284 -96.19006 90 ft 37 kts 191°
2026-05-05 00:30 19.13005 -96.19063 92 ft 45 kts 188°
2026-05-05 00:30 19.12847 -96.19042 92 ft 15 kts 270°
2026-05-05 00:30 19.12899 -96.19098 93 ft 13 kts 31°
2026-05-05 00:30 19.12979 -96.19069 92 ft 11 kts 11°
2026-05-05 00:31 19.13032 -96.19058 92 ft 0 kts 10°
2026-05-05 00:31 19.13048 -96.19055 92 ft 17 kts
2026-05-05 00:31 19.13369 -96.18989 89 ft 74 kts 14°
2026-05-05 00:31 19.13954 -96.18856 172 ft 94 kts 10°
2026-05-05 00:32 19.14606 -96.18703 327 ft 97 kts 12°
2026-05-05 00:32 19.15200 -96.18393 462 ft 95 kts 42°
2026-05-05 00:32 19.15484 -96.17772 565 ft 98 kts 88°
2026-05-05 00:32 19.15237 -96.17122 674 ft 98 kts 126°
2026-05-05 00:33 19.14809 -96.16582 815 ft 96 kts 132°
2026-05-05 00:33 19.14332 -96.16067 922 ft 97 kts 138°
2026-05-05 00:33 19.13834 -96.15609 1055 ft 93 kts 138°
2026-05-05 00:33 19.13327 -96.15134 1089 ft 99 kts 139°
2026-05-05 00:34 19.12829 -96.14668 1257 ft 91 kts 138°
2026-05-05 00:34 19.12385 -96.14203 1410 ft 92 kts 133°
2026-05-05 00:34 19.11963 -96.13717 1569 ft 89 kts 131°
2026-05-05 00:34 19.11583 -96.13207 1679 ft 89 kts 130°
2026-05-05 00:35 19.11193 -96.12713 1806 ft 86 kts 131°
2026-05-05 00:35 19.10816 -96.12233 1960 ft 86 kts 130°
2026-05-05 00:35 19.10555 -96.11895 2090 ft 91 kts 129°
2026-05-05 00:35 19.10162 -96.11384 2224 ft 89 kts 129°
2026-05-05 00:36 19.09769 -96.10883 2361 ft 88 kts 126°
2026-05-05 00:36 19.09263 -96.10169 2616 ft 95 kts 130°
2026-05-05 00:36 19.08858 -96.09633 2787 ft 95 kts 131°
2026-05-05 00:36 19.08387 -96.09132 2959 ft 96 kts 137°
2026-05-05 00:37 19.07900 -96.08643 3123 ft 98 kts 137°
2026-05-05 00:37 19.07566 -96.08315 3243 ft 98 kts 137°
2026-05-05 00:37 19.07096 -96.07812 3395 ft 94 kts 133°
2026-05-05 00:37 19.06658 -96.07303 3542 ft 92 kts 133°
2026-05-05 00:38 19.06238 -96.06813 3709 ft 87 kts 132°
2026-05-05 00:38 19.05827 -96.06329 3872 ft 90 kts 132°
2026-05-05 00:38 19.05306 -96.05640 4072 ft 93 kts 127°
2026-05-05 00:38 19.04933 -96.05098 4247 ft 90 kts 125°
2026-05-05 00:39 19.04697 -96.04733 4328 ft 92 kts 125°
2026-05-05 00:39 19.04323 -96.04186 4449 ft 91 kts 126°
2026-05-05 00:39 19.03933 -96.03674 4594 ft 90 kts 131°
2026-05-05 00:39 19.03506 -96.03176 4768 ft 90 kts 130°
2026-05-05 00:40 19.03113 -96.02662 4924 ft 89 kts 126°
2026-05-05 00:40 19.02746 -96.02137 5061 ft 88 kts 127°
2026-05-05 00:40 19.02392 -96.01612 5196 ft 88 kts 126°
2026-05-05 00:40 19.02057 -96.01074 5357 ft 89 kts 117°
2026-05-05 00:41 19.01750 -96.00495 5495 ft 91 kts 126°
2026-05-05 00:41 19.01362 -95.99983 5658 ft 89 kts 129°
2026-05-05 00:41 19.01044 -95.99414 5800 ft 92 kts 116°
2026-05-05 00:41 19.00688 -95.98815 5887 ft 100 kts 126°
2026-05-05 00:42 19.00298 -95.98203 6003 ft 99 kts 121°
2026-05-05 00:42 18.99958 -95.97654 6103 ft 98 kts 126°
2026-05-05 00:42 18.99569 -95.97080 6281 ft 92 kts 124°
2026-05-05 00:42 18.99270 -95.96506 6441 ft 90 kts 126°
2026-05-05 00:43 18.98896 -95.95978 6599 ft 88 kts 126°
2026-05-05 00:43 18.98578 -95.95460 6760 ft 85 kts 125°
2026-05-05 00:43 18.98219 -95.94987 6934 ft 80 kts 124°
2026-05-05 00:43 18.97880 -95.94485 6989 ft 90 kts 128°
2026-05-05 00:44 18.97485 -95.93935 7024 ft 99 kts 124°
2026-05-05 00:44 18.97194 -95.93283 7116 ft 99 kts 110°
2026-05-05 00:44 18.96869 -95.92600 7141 ft 105 kts 123°
2026-05-05 00:44 18.96451 -95.91936 7133 ft 112 kts 121°
2026-05-05 00:45 18.96107 -95.91168 7080 ft 118 kts 113°
2026-05-05 00:45 18.95689 -95.90432 7079 ft 117 kts 126°
2026-05-05 00:45 18.95221 -95.89733 7057 ft 118 kts 123°
2026-05-05 00:45 18.94777 -95.89019 7079 ft 115 kts 123°
2026-05-05 00:46 18.94377 -95.88287 7087 ft 115 kts 120°
2026-05-05 00:46 18.93909 -95.87618 7122 ft 112 kts 130°
2026-05-05 00:46 18.93417 -95.86985 7110 ft 116 kts 127°
2026-05-05 00:46 18.92906 -95.86319 7114 ft 114 kts 128°
2026-05-05 00:47 18.92466 -95.85603 7089 ft 117 kts 116°
2026-05-05 00:47 18.92142 -95.84809 7057 ft 118 kts 115°
2026-05-05 00:47 18.91816 -95.84024 7082 ft 114 kts 112°
2026-05-05 00:47 18.91596 -95.83240 7085 ft 116 kts 104°
2026-05-05 00:48 18.91245 -95.82441 7001 ft 119 kts 124°
2026-05-05 00:48 18.90786 -95.81728 7025 ft 115 kts 118°
2026-05-05 00:48 18.90408 -95.80979 6994 ft 118 kts 112°
2026-05-05 00:48 18.90096 -95.80182 7000 ft 115 kts 118°
2026-05-05 00:49 18.89652 -95.79444 6874 ft 124 kts 126°
2026-05-05 00:49 18.89186 -95.78740 6994 ft 111 kts 122°
2026-05-05 00:49 18.88852 -95.78014 6995 ft 114 kts 115°
2026-05-05 00:49 18.88457 -95.77229 6827 ft 123 kts 121°
2026-05-05 00:50 18.88071 -95.76575 7140 ft 98 kts 121°
2026-05-05 00:50 18.87748 -95.75887 7167 ft 103 kts 114°
2026-05-05 00:50 18.87378 -95.75177 7037 ft 119 kts 122°
2026-05-05 00:50 18.86969 -95.74452 7104 ft 113 kts 116°
2026-05-05 00:51 18.86646 -95.73676 7067 ft 116 kts 116°
2026-05-05 00:51 18.86371 -95.72871 6964 ft 124 kts 107°
2026-05-05 00:51 18.86053 -95.72061 7031 ft 114 kts 119°
2026-05-05 00:51 18.85663 -95.71317 6999 ft 117 kts 118°
2026-05-05 00:52 18.85285 -95.70593 7061 ft 113 kts 121°
2026-05-05 00:52 18.84853 -95.69891 7063 ft 115 kts 124°
2026-05-05 00:52 18.84444 -95.69168 7087 ft 114 kts 116°
2026-05-05 00:52 18.84105 -95.68408 7095 ft 115 kts 122°
2026-05-05 00:53 18.83642 -95.67726 7130 ft 113 kts 126°
2026-05-05 00:53 18.83188 -95.67034 7112 ft 117 kts 126°
2026-05-05 00:53 18.82708 -95.66350 7121 ft 116 kts 127°
2026-05-05 00:53 18.82227 -95.65679 7170 ft 113 kts 123°
2026-05-05 00:54 18.81840 -95.64955 7138 ft 117 kts 121°
2026-05-05 00:54 18.81396 -95.64243 7174 ft 114 kts 123°
2026-05-05 00:54 18.80993 -95.63515 7160 ft 116 kts 122°
2026-05-05 00:54 18.80564 -95.62790 7166 ft 116 kts 122°
2026-05-05 00:55 18.80140 -95.62072 7153 ft 118 kts 121°
2026-05-05 00:55 18.79752 -95.61300 7160 ft 116 kts 117°
2026-05-05 00:55 18.79374 -95.60521 7033 ft 126 kts 117°
2026-05-05 00:55 18.78979 -95.59725 7035 ft 121 kts 116°
2026-05-05 00:56 18.78628 -95.58909 6994 ft 121 kts 112°
2026-05-05 00:56 18.78278 -95.58131 7039 ft 116 kts 123°
2026-05-05 00:56 18.77792 -95.57466 7039 ft 117 kts 129°
2026-05-05 00:56 18.77274 -95.56802 7040 ft 116 kts 127°
2026-05-05 00:57 18.76795 -95.56105 7015 ft 118 kts 128°
2026-05-05 00:57 18.76266 -95.55445 7005 ft 118 kts 132°
2026-05-05 00:57 18.75723 -95.54803 7019 ft 116 kts 134°
2026-05-05 00:57 18.75180 -95.54177 7043 ft 114 kts 131°
2026-05-05 00:58 18.74633 -95.53551 7026 ft 117 kts 133°
2026-05-05 00:58 18.74078 -95.52941 7052 ft 115 kts 134°
2026-05-05 00:58 18.73527 -95.52334 7076 ft 115 kts 133°
2026-05-05 00:58 18.72985 -95.51718 7059 ft 117 kts 134°
2026-05-05 00:59 18.72436 -95.51096 7109 ft 112 kts 133°
2026-05-05 00:59 18.71912 -95.50485 7126 ft 114 kts 131°
2026-05-05 00:59 18.71373 -95.49861 7118 ft 116 kts 134°
2026-05-05 00:59 18.70813 -95.49248 7167 ft 115 kts 135°
2026-05-05 01:00 18.70248 -95.48657 7185 ft 116 kts 136°
2026-05-05 01:00 18.69673 -95.48036 7180 ft 117 kts 135°
2026-05-05 01:00 18.69106 -95.47427 7170 ft 120 kts 135°
2026-05-05 01:00 18.68527 -95.46817 7176 ft 118 kts 137°
2026-05-05 01:01 18.67945 -95.46205 7199 ft 116 kts 135°
2026-05-05 01:01 18.67343 -95.45606 7111 ft 122 kts 137°
2026-05-05 01:01 18.66739 -95.44982 7074 ft 121 kts 134°
2026-05-05 01:01 18.66170 -95.44330 7044 ft 122 kts 133°
2026-05-05 01:02 18.65612 -95.43682 7082 ft 117 kts 131°
2026-05-05 01:02 18.65083 -95.43045 7126 ft 115 kts 133°
2026-05-05 01:02 18.64576 -95.42388 7119 ft 117 kts 128°
2026-05-05 01:02 18.64072 -95.41714 7127 ft 117 kts 130°
2026-05-05 01:03 18.63550 -95.41041 7075 ft 121 kts 129°
2026-05-05 01:03 18.63029 -95.40362 7083 ft 118 kts 129°
2026-05-05 01:03 18.62500 -95.39713 7114 ft 116 kts 133°
2026-05-05 01:03 18.61967 -95.39086 7189 ft 111 kts 132°
2026-05-05 01:04 18.61494 -95.38453 7265 ft 111 kts 125°
2026-05-05 01:04 18.60675 -95.36996 7264 ft 116 kts 120°
2026-05-05 01:04 18.60254 -95.36268 7278 ft 116 kts 124°
2026-05-05 01:05 18.59797 -95.35529 7174 ft 123 kts 123°
2026-05-05 01:05 18.59322 -95.34792 7124 ft 123 kts 125°
2026-05-05 01:05 18.58826 -95.34066 7115 ft 120 kts 126°
2026-05-05 01:05 18.58337 -95.33346 7054 ft 125 kts 125°
2026-05-05 01:06 18.57856 -95.32624 7104 ft 120 kts 125°
2026-05-05 01:06 18.57375 -95.31895 7100 ft 120 kts 127°
2026-05-05 01:06 18.56858 -95.31198 7031 ft 123 kts 129°
2026-05-05 01:06 18.56312 -95.30496 7004 ft 122 kts 129°
2026-05-05 01:07 18.55763 -95.29819 7015 ft 119 kts 133°
2026-05-05 01:07 18.55198 -95.29188 7036 ft 117 kts 135°
2026-05-05 01:07 18.54605 -95.28615 7057 ft 118 kts 139°
2026-05-05 01:07 18.53979 -95.28026 6947 ft 125 kts 139°
2026-05-05 01:08 18.53320 -95.27451 6962 ft 120 kts 142°
2026-05-05 01:08 18.52695 -95.26896 6997 ft 118 kts 140°
2026-05-05 01:08 18.52058 -95.26340 7013 ft 117 kts 140°
2026-05-05 01:08 18.51416 -95.25810 7036 ft 118 kts 142°
2026-05-05 01:09 18.50770 -95.25273 7026 ft 119 kts 141°
2026-05-05 01:09 18.50129 -95.24732 7023 ft 118 kts 143°
2026-05-05 01:09 18.49483 -95.24192 6999 ft 118 kts 139°
2026-05-05 01:09 18.49295 -95.24016 7002 ft 117 kts 139°
2026-05-05 01:12 18.48957 -95.23706 6926 ft 120 kts 140°
2026-05-05 01:12 18.48330 -95.23167 6966 ft 113 kts 143°
2026-05-05 01:12 18.47696 -95.22676 6961 ft 113 kts 145°
2026-05-05 01:12 18.47063 -95.22198 6993 ft 115 kts 144°
2026-05-05 01:13 18.46402 -95.21714 7007 ft 115 kts 146°
2026-05-05 01:13 18.45757 -95.21238 7028 ft 115 kts 146°
2026-05-05 01:13 18.45104 -95.20736 7032 ft 117 kts 139°
2026-05-05 01:13 18.44512 -95.20160 7037 ft 119 kts 137°
2026-05-05 01:14 18.43925 -95.19552 7061 ft 117 kts 135°
2026-05-05 01:14 18.43340 -95.18951 7055 ft 119 kts 136°
2026-05-05 01:14 18.42747 -95.18331 7029 ft 120 kts 135°
2026-05-05 01:14 18.42162 -95.17706 7029 ft 120 kts 135°
2026-05-05 01:15 18.41565 -95.17100 7029 ft 120 kts 138°
2026-05-05 01:15 18.40969 -95.16498 7029 ft 119 kts 135°
2026-05-05 01:15 18.40377 -95.15877 7003 ft 120 kts 135°
2026-05-05 01:15 18.39807 -95.15267 7050 ft 117 kts 133°
2026-05-05 01:16 18.39307 -95.14585 7026 ft 119 kts 126°
2026-05-05 01:16 18.38840 -95.13865 7017 ft 120 kts 123°
2026-05-05 01:16 18.38385 -95.13150 7070 ft 116 kts 126°
2026-05-05 01:16 18.37883 -95.12471 7049 ft 117 kts 130°
2026-05-05 01:17 18.37327 -95.11837 6988 ft 121 kts 134°
2026-05-05 01:17 18.36742 -95.11212 7046 ft 118 kts 136°
2026-05-05 01:17 18.36156 -95.10613 7064 ft 119 kts 137°
2026-05-05 01:17 18.35562 -95.10017 7031 ft 120 kts 137°
2026-05-05 01:18 18.34957 -95.09421 7037 ft 117 kts 139°
2026-05-05 01:18 18.34336 -95.08849 7011 ft 120 kts 139°
2026-05-05 01:18 18.33725 -95.08256 7020 ft 119 kts 135°
2026-05-05 01:18 18.33148 -95.07641 6996 ft 120 kts 135°
2026-05-05 01:19 18.32570 -95.07020 7046 ft 116 kts 134°
2026-05-05 01:19 18.32010 -95.06404 7044 ft 118 kts 133°
2026-05-05 01:19 18.31463 -95.05756 7029 ft 117 kts 132°
2026-05-05 01:19 18.30913 -95.05124 7033 ft 117 kts 133°
2026-05-05 01:20 18.30351 -95.04503 7030 ft 118 kts 135°
2026-05-05 01:20 18.29781 -95.03887 6992 ft 122 kts 134°
2026-05-05 01:20 18.29195 -95.03240 6926 ft 120 kts 134°
2026-05-05 01:20 18.28618 -95.02642 6748 ft 114 kts 139°
2026-05-05 01:21 18.28022 -95.02118 6585 ft 110 kts 142°
2026-05-05 01:21 18.27451 -95.01605 6417 ft 107 kts 133°
2026-05-05 01:21 18.26988 -95.00992 6285 ft 104 kts 127°
2026-05-05 01:21 18.26550 -95.00384 6164 ft 105 kts 127°
2026-05-05 01:22 18.26143 -94.99761 6058 ft 104 kts 123°
2026-05-05 01:22 18.25775 -94.99105 5959 ft 102 kts 121°
2026-05-05 01:22 18.25399 -94.98472 5832 ft 106 kts 124°
2026-05-05 01:22 18.24980 -94.97817 5715 ft 108 kts 124°
2026-05-05 01:23 18.24559 -94.97166 5657 ft 107 kts 125°
2026-05-05 01:23 18.24157 -94.96517 5582 ft 105 kts 119°
2026-05-05 01:23 18.23814 -94.95849 5554 ft 103 kts 117°
2026-05-05 01:23 18.23495 -94.95171 5517 ft 103 kts 117°
2026-05-05 01:24 18.23179 -94.94496 5490 ft 103 kts 116°
2026-05-05 01:24 18.22863 -94.93790 5417 ft 107 kts 115°
2026-05-05 01:24 18.22534 -94.93072 5294 ft 109 kts 116°
2026-05-05 01:24 18.22208 -94.92359 5183 ft 110 kts 116°
2026-05-05 01:25 18.21881 -94.91643 5104 ft 106 kts 114°
2026-05-05 01:25 18.21573 -94.90928 4985 ft 107 kts 114°
2026-05-05 01:25 18.21273 -94.90220 4925 ft 104 kts 113°
2026-05-05 01:25 18.20994 -94.89518 4778 ft 107 kts 111°
2026-05-05 01:26 18.20730 -94.88785 4681 ft 106 kts 111°
2026-05-05 01:26 18.20470 -94.88075 4663 ft 102 kts 111°
2026-05-05 01:26 18.20228 -94.87372 4648 ft 101 kts 109°
2026-05-05 01:26 18.19988 -94.86660 4553 ft 107 kts 110°
2026-05-05 01:27 18.19729 -94.85917 4502 ft 109 kts 108°
2026-05-05 01:27 18.19510 -94.85172 4466 ft 109 kts 110°
2026-05-05 01:27 18.19251 -94.84404 4367 ft 111 kts 108°
2026-05-05 01:27 18.19027 -94.83635 4334 ft 108 kts 107°
2026-05-05 01:28 18.18825 -94.82894 4302 ft 107 kts 106°
2026-05-05 01:28 18.18588 -94.82132 4198 ft 111 kts 108°
2026-05-05 01:28 18.18367 -94.81365 4151 ft 106 kts 106°
2026-05-05 01:28 18.18201 -94.80631 4106 ft 103 kts 103°
2026-05-05 01:29 18.17983 -94.79918 4031 ft 104 kts 110°
2026-05-05 01:29 18.17751 -94.79229 4085 ft 98 kts 109°
2026-05-05 01:29 18.17523 -94.78490 3964 ft 112 kts 108°
2026-05-05 01:29 18.17291 -94.77707 3938 ft 112 kts 106°
2026-05-05 01:30 18.17077 -94.76901 3854 ft 116 kts 106°
2026-05-05 01:30 18.16850 -94.76101 3865 ft 111 kts 105°
2026-05-05 01:30 18.16671 -94.75254 3625 ft 123 kts 103°
2026-05-05 01:30 18.16472 -94.74418 3386 ft 113 kts 107°
2026-05-05 01:31 18.16253 -94.73654 3244 ft 105 kts 107°
2026-05-05 01:31 18.16039 -94.72934 3166 ft 102 kts 108°
2026-05-05 01:31 18.15832 -94.72233 3100 ft 100 kts 107°
2026-05-05 01:31 18.15647 -94.71534 3018 ft 100 kts 105°
2026-05-05 01:32 18.15471 -94.70832 2933 ft 100 kts 103°
2026-05-05 01:32 18.15299 -94.70102 2767 ft 106 kts 104°
2026-05-05 01:32 18.15134 -94.69371 2748 ft 99 kts 104°
2026-05-05 01:32 18.14977 -94.68683 2747 ft 98 kts 104°
2026-05-05 01:33 18.14803 -94.67978 2745 ft 100 kts 104°
2026-05-05 01:33 18.14623 -94.67274 2722 ft 100 kts 106°
2026-05-05 01:33 18.14430 -94.66592 2719 ft 97 kts 107°
2026-05-05 01:33 18.14249 -94.65909 2728 ft 99 kts 105°
2026-05-05 01:34 18.14052 -94.65181 2613 ft 107 kts 105°
2026-05-05 01:34 18.13855 -94.64446 2615 ft 102 kts 108°
2026-05-05 01:34 18.13521 -94.63796 2523 ft 102 kts 131°
2026-05-05 01:34 18.13014 -94.63282 2356 ft 100 kts 142°
2026-05-05 01:35 18.12466 -94.62849 2108 ft 94 kts 147°
2026-05-05 01:35 18.11924 -94.62503 1947 ft 87 kts 153°
2026-05-05 01:35 18.11412 -94.62229 1820 ft 79 kts 155°
2026-05-05 01:35 18.10926 -94.61999 1680 ft 74 kts 153°
2026-05-05 01:36 18.10498 -94.61721 1610 ft 73 kts 150°
2026-05-05 01:36 18.10088 -94.61441 1551 ft 69 kts 146°
2026-05-05 01:36 18.09708 -94.61132 1460 ft 71 kts 140°
2026-05-05 01:36 18.09363 -94.60767 1373 ft 73 kts 131°
2026-05-05 01:37 18.09063 -94.60369 1250 ft 67 kts 126°
2026-05-05 01:37 18.08814 -94.59940 1057 ft 67 kts 118°
2026-05-05 01:37 18.08633 -94.59488 831 ft 68 kts 106°
2026-05-05 01:37 18.08655 -94.59001 598 ft 70 kts 66°
2026-05-05 01:38 18.08942 -94.58574 295 ft 73 kts 35°
2026-05-05 01:38 18.09376 -94.58374 93 ft 65 kts 11°
2026-05-05 01:38 18.09767 -94.58256 34 ft 49 kts 22°
2026-05-05 01:38 18.10007 -94.58135 33 ft 27 kts 61°
2026-05-05 01:39 18.10121 -94.58005 33 ft 25 kts 43°
2026-05-05 01:39 18.10199 -94.57879 32 ft 15 kts 118°
2026-05-05 01:39 18.10129 -94.57852 33 ft 11 kts 149°
2026-05-05 01:39 18.10110 -94.57853 33 ft 0 kts 200°